Ariane Rocket - Orbit

View from above orbital plane
View from above orbital plane
View from above satellite
View from above satellite

Ground track
Ground track

The orbit data is extracted from the following two-line orbital elements,

1 23561U 95021B   13168.87525213  .00000108  00000-0  51687-4 0  5071
2 23561 098.6307 127.8834 0005766 263.1662 130.7989 14.36957959951454
Epoch (UTC): 17 June 2013 21:00:21
Eccentricity: 0.0005766
inclination: 98.6307°
perigee height: 764 km
apogee height: 772 km
right ascension of ascending node: 127.8834°
argument of perigee: 263.1662°
revolutions per day: 14.36957959
mean anomaly at epoch: 130.7989°
orbit number at epoch: 95145

The dashed part of the orbit path shows where the satellite is in the earth's shadow,  

Developed and maintained by Chris Peat, Heavens-Above GmbH. Please read the updated FAQ before sending e-mail. Imprint. DLR